GW3752 Weather Reports


Display with metric or nautical units.
time (UTC)temp
F
wind
direction
speed
MPH
gust
MPH
rain 1hr
in
rain 24hr
in
rain mn
in
humidity
%
barometer
mb
20260905213037 94 254 2.0 6.0 0.00 0.00 0.00 42 1010.6
20260905211535 93 273 1.0 7.0 0.00 0.00 0.00 44 1010.8
20260905210035 94 266 4.0 13.0 0.00 0.00 0.00 56 1011.1
20260905204537 98 295 0.0 6.0 0.00 0.00 0.00 52 1011.0
20260905203038 98 226 3.0 7.0 0.00 0.00 0.00 35 1011.3
20260905201535 100 187 8.0 11.0 0.00 0.00 0.00 34 1011.5
20260905200033 100 237 5.0 9.0 0.00 0.00 0.00 48 1011.4
20260905194535 100 107 4.0 13.0 0.00 0.00 0.00 36 1011.8
20260905193035 99 248 6.0 15.0 0.00 0.00 0.00 35 1011.9
20260905191537 101 0 2.0 5.0 0.00 0.00 0.00 35 1012.3
20260905190056 99 0 2.0 8.0 0.00 0.00 0.00 37 1012.6
20260905184553 100 283 2.0 6.0 0.00 0.00 0.00 38 1012.5
20260905183036 98 259 4.0 7.0 0.00 0.00 0.00 51 1012.8
20260905181534 97 229 4.0 7.0 0.00 0.00 0.00 41 1013.2
20260905180035 98 277 2.0 6.0 0.00 0.00 0.00 52 1013.2
20260905174543 98 272 2.0 6.0 0.00 0.00 0.00 53 1013.2
20260905173039 97 256 2.0 9.0 0.00 0.00 0.00 42 1013.3
20260905171533 96 354 4.0 7.0 0.00 0.00 0.00 54 1013.3
20260905170037 96 268 3.0 11.0 0.00 0.00 0.00 55 1013.3
20260905164536 96 183 3.0 6.0 0.00 0.00 0.00 55 1013.6
20260905163036 94 236 5.0 9.0 0.00 0.00 0.00 46 1013.9
20260905161537 94 267 3.0 7.0 0.00 0.00 0.00 48 1014.0
20260905160035 94 272 3.0 7.0 0.00 0.00 0.00 62 1014.2
20260905154534 93 227 3.0 6.0 0.00 0.00 0.00 52 1014.1
20260905153036 93 282 1.0 5.0 0.00 0.00 0.00 54 1014.1
20260905151538 91 300 3.0 7.0 0.00 0.00 0.00 69 1014.1
20260905150034 91 229 4.0 5.0 0.00 0.00 0.00 57 1014.1
20260905144541 90 263 3.0 7.0 0.00 0.00 0.00 68 1014.2
20260905143035 89 190 4.0 7.0 0.00 0.00 0.00 70 1014.3
20260905141542 87 208 4.0 7.0 0.00 0.00 0.00 60 1014.3
20260905140036 87 184 1.0 4.0 0.00 0.00 0.00 65 1014.4
20260905134537 85 166 0.0 2.0 0.00 0.00 0.00 68 1014.5
20260905133036 83 176 2.0 5.0 0.00 0.00 0.00 72 1014.5
20260905131552 81 171 1.0 3.0 0.00 0.00 0.00 76 1014.6
20260905130038 80 167 3.0 4.0 0.00 0.00 0.00 78 1014.6
20260905124546 79 0 0.0 0.0 0.00 0.00 0.00 79 1014.6
20260905123045 78 0 0.0 0.0 0.00 0.00 0.00 81 1014.6
20260905121538 76 0 0.0 1.0 0.00 0.00 0.00 84 1014.5
20260905120036 74 178 0.0 2.0 0.00 0.00 0.00 85 1014.3
20260905114542 73 176 1.0 2.0 0.00 0.00 0.00 85 1014.2
20260905113041 74 153 0.0 2.0 0.00 0.00 0.00 85 1013.9
20260905111550 74 165 3.0 4.0 0.00 0.00 0.00 84 1013.9
20260905110035 74 188 0.0 1.0 0.00 0.00 0.00 84 1013.5
20260905104554 74 190 0.0 1.0 0.00 0.00 0.00 84 1013.3
20260905103036 74 185 0.0 1.0 0.00 0.00 0.00 83 1013.3
20260905101540 75 0 0.0 0.0 0.00 0.00 0.00 84 1013.3
20260905100034 75 0 0.0 0.0 0.00 0.00 0.00 84 1013.2
20260905094536 75 185 0.0 1.0 0.00 0.00 0.00 84 1013.3
20260905093034 75 0 0.0 1.0 0.00 0.00 0.00 83 1013.2
20260905091536 75 0 0.0 3.0 0.00 0.00 0.00 83 1013.1
20260905090037 75 171 1.0 2.0 0.00 0.00 0.00 81 1013.1
20260905084557 76 0 0.0 0.0 0.00 0.00 0.00 81 1013.1
20260905083033 76 0 0.0 0.0 0.00 0.00 0.00 81 1013.2
20260905081533 76 0 0.0 1.0 0.00 0.00 0.00 81 1013.2
20260905080035 76 0 0.0 1.0 0.00 0.00 0.00 81 1013.3
20260905074536 76 0 0.0 1.0 0.00 0.00 0.00 81 1013.4
20260905073036 77 0 0.0 1.0 0.00 0.00 0.00 80 1013.3
20260905071534 77 0 0.0 0.0 0.00 0.00 0.00 79 1013.5
20260905070033 77 0 0.0 0.0 0.00 0.00 0.00 79 1013.6
20260905064535 77 0 0.0 1.0 0.00 0.00 0.00 79 1013.6
20260905063035 78 0 0.0 1.0 0.00 0.00 0.00 79 1013.6
20260905061533 78 0 0.0 2.0 0.00 0.00 0.00 79 1013.7
20260905060035 78 178 2.0 2.0 0.00 0.00 0.00 77 1013.8
20260905054536 79 0 0.0 0.0 0.00 0.00 0.00 76 1013.8
20260905053034 79 0 0.0 3.0 0.00 0.00 0.00 76 1013.9
20260905051539 80 0 0.0 2.0 0.00 0.00 0.00 75 1013.9
20260905050036 79 209 0.0 1.0 0.00 0.00 0.00 77 1013.7
20260905044535 79 0 0.0 1.0 0.00 0.00 0.00 77 1013.7
20260905043033 79 200 0.0 3.0 0.00 0.00 0.00 77 1013.8
20260905041538 80 0 0.0 1.0 0.00 0.00 0.00 75 1013.7
20260905040035 80 180 0.0 1.0 0.00 0.00 0.00 75 1013.8
20260905034544 81 180 0.0 2.0 0.00 0.00 0.00 74 1013.9
20260905033034 81 0 0.0 1.0 0.00 0.00 0.00 73 1013.9
20260905031538 81 0 0.0 0.0 0.00 0.00 0.00 73 1014.1
20260905030036 82 0 0.0 1.0 0.00 0.00 0.00 72 1014.1
20260905024536 82 0 0.0 1.0 0.00 0.00 0.00 71 1014.1
20260905023042 82 0 0.0 1.0 0.00 0.00 0.00 70 1014.0
20260905021541 83 0 0.0 0.0 0.00 0.00 0.00 70 1013.8
20260905020034 84 0 0.0 0.0 0.00 0.00 0.00 69 1013.7
20260905014535 84 0 0.0 0.0 0.00 0.00 0.00 67 1013.7
20260905013035 85 0 0.0 1.0 0.00 0.00 0.00 66 1013.5
20260905011539 85 0 0.0 2.0 0.00 0.00 0.00 66 1013.5
20260905010036 86 181 0.0 1.0 0.00 0.00 0.00 79 1013.5
20260905004545 86 0 0.0 1.0 0.00 0.00 0.00 67 1013.6
20260905003037 86 0 0.0 1.0 0.00 0.00 0.00 66 1013.3
20260905001535 87 345 0.0 1.0 0.00 0.00 0.00 66 1013.3
20260905000035 90 345 0.0 1.0 0.00 0.00 0.00 72 1013.2
20260904234544 97 199 0.0 0.0 0.00 0.00 0.00 53 1013.2
20260904233052 99 0 0.0 1.0 0.00 0.00 0.00 45 1012.9
20260904231535 100 0 0.0 1.0 0.00 0.00 0.00 54 1012.9
20260904230036 100 237 0.0 4.0 0.00 0.00 0.00 36 1012.8
20260904224541 99 196 2.0 6.0 0.00 0.00 0.00 37 1012.7
20260904223041 100 173 1.0 5.0 0.00 0.00 0.00 35 1012.7
20260904221535 99 270 1.0 3.0 0.00 0.00 0.00 48 1012.7
20260904220035 100 282 2.0 6.0 0.00 0.00 0.00 32 1012.8
20260904214542 101 206 3.0 6.0 0.00 0.00 0.00 32 1013.0